User: anonymous   Login
Location: Laguna de la Cañada del Gallo
(40.3974°N, 5.2096°W)
Time: 12:01:46
(UTC+00:00)
Language:

CZ-4B R/B - Orbit

View from above orbital plane
View from above orbital plane
View from above satellite
View from above satellite

Ground track
Ground track

The orbit data is extracted from the following two-line orbital elements,

1 33410U 08053C   24174.15677090  .00003964  00000-0  22341-3 0  9997
2 33410  97.8793 208.0799 0108314 229.5928 129.5811 15.08927032854994
Epoch (UTC): 22 June 2024 03:45:45
Eccentricity: 0.0108314
inclination: 97.8793°
perigee height: 464 km
apogee height: 614 km
right ascension of ascending node: 208.0799°
argument of perigee: 229.5928°
revolutions per day: 15.08927032
mean anomaly at epoch: 129.5811°
orbit number at epoch: 85499

The dashed part of the orbit path shows where the satellite is in the earth's shadow,  

DLR